Melton Hill Observed Data For Previous 48 Hours

Caption
Day and Hour Reservoir Elevation (behind dam)* Tailwater Elevation (below dam)* Average Hourly Discharge*
1/17/2018 2 AM EST 794.15 736.23 628
1/17/2018 3 AM EST 794.19 736.26 0
1/17/2018 4 AM EST 794.03 737.50 440
1/17/2018 5 AM EST 794.15 738.03 6,633
1/17/2018 6 AM EST 794.10 737.95 6,617
1/17/2018 7 AM EST 794.15 737.76 6,631
1/17/2018 8 AM EST 794.04 737.64 6,627
1/17/2018 9 AM EST 794.03 737.64 6,611
1/17/2018 10 AM EST 793.99 737.59 6,605
1/17/2018 11 AM EST 793.98 737.53 6,607
1/17/2018 12 PM EST 793.95 737.49 6,618
1/17/2018 1 PM EST 794.04 736.17 594
1/17/2018 2 PM EST 794.09 736.30 0
1/17/2018 3 PM EST 794.12 736.78 0
1/17/2018 4 PM EST 794.24 737.02 0
1/17/2018 5 PM EST 794.30 736.84 0
1/17/2018 6 PM EST 794.19 737.60 442
1/17/2018 7 PM EST 794.21 737.97 6,645
1/17/2018 8 PM EST 794.15 737.96 6,641
1/17/2018 9 PM EST 794.16 737.78 6,639
1/17/2018 10 PM EST 794.04 737.63 6,644
1/17/2018 11 PM EST 793.97 737.55 6,643
1/18/2018 12 AM EST 794.00 736.10 532
1/18/2018 1 AM EST 794.00 736.20 0
1/18/2018 2 AM EST 794.05 736.83 0
1/18/2018 3 AM EST 794.20 737.11 0
1/18/2018 4 AM EST 794.07 737.57 402
1/18/2018 5 AM EST 794.11 737.82 6,605
1/18/2018 6 AM EST 794.05 737.78 6,630
1/18/2018 7 AM EST 794.11 737.61 6,648
1/18/2018 8 AM EST 794.02 737.49 6,661
1/18/2018 9 AM EST 794.02 737.53 6,661
1/18/2018 10 AM EST 793.98 737.49 6,642
1/18/2018 11 AM EST 793.95 737.42 6,621
1/18/2018 12 PM EST 793.91 737.40 6,617
1/18/2018 1 PM EST 794.03 736.36 5,338
1/18/2018 2 PM EST 794.05 736.08 0
1/18/2018 3 PM EST 793.99 736.32 0
1/18/2018 4 PM EST 794.03 736.93 0
1/18/2018 5 PM EST 794.13 737.02 0
1/18/2018 6 PM EST 794.09 737.51 396
1/18/2018 7 PM EST 794.13 737.86 6,608
1/18/2018 8 PM EST 794.09 737.86 6,614
1/18/2018 9 PM EST 794.09 737.71 6,634
1/18/2018 10 PM EST 793.95 737.58 6,651
1/18/2018 11 PM EST 793.89 737.59 6,650
1/19/2018 12 AM EST 793.79 737.60 6,669

Elevations are in feet above sea level. Discharges are in cubic feet per second and are reported at the end of the hour.